Regional Weather Roundup
Issued by NWS

Home | Current Version | Previous Version | Graphics & Text | Print | Product List | Glossary On
Versions: 1 2 3 4 5 6 7 8 9 10 11 12 13 14 15 16 17 18 19 20 21 22 23 24 25 26 27 28 29 30 31 32 33 34 35 36 37 38 39 40 41 42 43 44 45 46 47 48 49 50
000
ASUS43 KDTX 270810
RWRMI
MICHIGAN HOURLY REGIONAL WEATHER ROUNDUP
NATIONAL WEATHER SERVICE DETROIT/PONTIAC MI
300 AM EST FRI FEB 27 2015

NOTE: "FAIR" INDICATES FEW OR NO CLOUDS BELOW 12,000 FEET WITH NO
SIGNIFICANT WEATHER AND/OR OBSTRUCTION TO VISIBILITY.

MIZ047>049-052>055-059>063-066>070-074>076-081>083-270900-
SOUTHEAST LOWER MICHIGAN

CITY           SKY/WX    TMP DP  RH WIND       PRES   REMARKS
ADRIAN         CLEAR     -7 -11  83 N3        30.39R
ALMA           CLEAR     -8 -16  69 CALM      30.39S
ANN ARBOR      CLEAR    -12 -16  82 CALM      30.37R
BAD AXE        CLEAR     -8 -12  84 CALM      30.37R
CARO           CLEAR    -14 -19  78 CALM      30.38R
DETROIT CITY   MOCLDY     1  -4  79 CALM      30.39R
DETROIT        MOCLDY     1  -4  79 CALM      30.39R
FLINT          CLEAR     -9 -16  71 W3        30.38R
GROSSE ILE     CLEAR      0  -6  78 CALM      30.38R
HILLSDALE      CLEAR     -6 -11  77 CALM      30.34R
HOWELL         CLEAR     -6 -10  81 W3        30.35R

CITY           SKY/WX    TMP DP  RH WIND       PRES   REMARKS
JACKSON        CLEAR     -6 -11  79 NW3       30.37R
LAMBERTVILLE   FAIR      -2  -8  78 CALM      30.40R
LANSING        CLEAR     -3 -12  65 W3        30.39R
LAPEER         FAIR     -12 -17  79 CALM      30.37R
MASON          CLEAR     -7 -13  75 CALM      30.38R
MONROE         CLEAR     -6  -9  84 CALM      30.37R
MT. CLEMENS    CLEAR     -2  -6  81 N1        30.36R
PONTIAC        CLEAR     -7 -11  83 CALM      30.34R
PORT HOPE        N/A      1  -6  72 NW6       30.35F WCI -10
PORT HURON     CLEAR    -13 -18  77 CALM      30.37S
TRI CITIES     CLEAR     -1 -12  59 W3        30.39S
TROY           CLEAR      3  -4  73 CALM      30.39S
SAGINAW HB     CLEAR     -2  -9  71 CALM      30.40R
$$
MIZ043>046-050>051-056>058-064>065-071>073-077>080-270900-
SOUTHWEST LOWER MICHIGAN

CITY           SKY/WX    TMP DP  RH WIND       PRES   REMARKS
BATTLE CREEK   CLEAR      0 -10  63 N3        30.38R
BENTON HARBOR  CLEAR      2  -8  63 CALM      30.42R
BIG RAPIDS     CLEAR    -14 -19  79 CALM      30.36S
COLDWATER      CLEAR     -9 -14  78 CALM      30.37R
FREMONT        FAIR      -8 -15  74 CALM      30.39S
HOLLAND        CLEAR     -3 -13  62 CALM      30.42R
GRAND RAPIDS   CLEAR     -4 -13  65 E3        30.39S
IONIA          FAIR      -1 -10  63 CALM      30.39R
KALAMAZOO      CLEAR      0  -9  65 CALM      30.39R
LUDINGTON      PTCLDY    -4 -10  75 CALM      30.40S
MARSHALL       CLEAR    -13 -18  81 CALM      30.37R
MOUNT PLEASANT CLEAR    -10 -16  75 CALM      30.38S
MUSKEGON       PTCLDY    -5 -12  72 SE3       30.42R
SOUTH HAVEN    MOCLDY     0  -9  65 SE3       30.41R
$$
MIZ016>042-270900-
NORTHERN LOWER MICHIGAN

CITY           SKY/WX    TMP DP  RH WIND       PRES   REMARKS
ALPENA         CLEAR     -8 -13  78 W7        30.37S WCI -23
BEAVER ISLAND  CLEAR    -13 -17  81 CALM      30.36S
BELLAIRE       CLEAR    -20 -26  72 CALM      30.41R
CADILLAC       CLEAR    -23 -31  67 CALM      30.30S
CHARLEVOIX     CLEAR    -16 -21  78 CALM      30.40S
FRANKFORT      PTCLDY    -8 -12  81 CALM      30.39S
GAYLORD        CLEAR    -18 -24  74 CALM      30.29S
GRAYLING       CLEAR    -26 -33  66 CALM      30.33F
HARBOR SPRINGS CLEAR    -14 -19  79 CALM      30.35S
HOUGHTON LAKE  PTCLDY   -16 -23  70 CALM      30.34S
MANISTEE       MOCLDY    -9 -15  77 E5        30.40R WCI -21
OSCODA         CLEAR    -14 -19  77 SW6       30.37S WCI -28
PELLSTON       CLEAR    -23 -29  73 CALM      30.36S
ROGERS CITY    CLEAR     -6 -10  83 SW5       30.37S WCI -18
TRAVERSE CITY  CLEAR    -15 -21  74 CALM      30.38S
$$
MIZ007>008-015-270900-
EASTERN UPPER MICHIGAN

CITY           SKY/WX    TMP DP  RH WIND       PRES   REMARKS
KINROSS        PTCLDY    -6  -8  92 S3        30.32R
MACKINAC ISLAN CLEAR     -4  -9  80 W8        30.34S WCI -19
NEWBERRY       CLEAR     -7  -9  90 W8        30.31S WCI -22
S. S. MARIE    CLOUDY    -5  -9  83 S3        30.31R
MUNISING         N/A    -10 -17  71 S12       30.35S WCI -30
$$
MIZ004>006-011>014-085-270900-
CENTRAL UPPER MICHIGAN

CITY           SKY/WX    TMP DP  RH WIND       PRES   REMARKS
MANISTIQUE     PTCLDY    -3  -8  78 W6        30.35S WCI -15
ESCANABA       CLEAR     -9 -27  41 W5        30.39R WCI -21
MENOMINEE      CLEAR     -8 -11  84 CALM      30.39S
SAWYER-GWINN   CLEAR    -13 -18  79 CALM      30.29S
$$
MIZ001>003-009>011-084-270900-
WESTERN UPPER MICHIGAN

CITY           SKY/WX    TMP DP  RH WIND       PRES   REMARKS
HOUGHTON       CLEAR    -11 -15  82 W8        30.30S WCI -28
COPPER HARBOR    N/A      4  -5  66 VRB7      30.32S WCI  -8
IRONWOOD       CLEAR     -9 -22  54 SW8       30.32S WCI -26
$$

ABBREVIATIONS USED IN REMARKS
   TC - TEMPERATURE IN CELSIUS
  WCI - WIND CHILL INDEX
   HX - HEAT INDEX
  VSB - VISIBILITY




USA.gov is the U.S. government's official web portal to all federal, state and local government web resources and services.